Location: *
(44.3683°N, 6.6958°E)
Time: 06:47:31
(UTC+00:00)

STARLINK-36 - Pass Details

Date: 14 October 2019
Orbit: 548 x 551 km, 53.0° (Epoch: 12 November)

Event Time Altitude Azimuth Distance (km) Brightness Sun altitude
Rises 17:13:39 0° 226° (SW) 2,703 8.1 -4.7°
Reaches altitude 10° 17:15:53 10° 224° (SW) 1,813 7.1 -5.1°
Maximum altitude 17:19:58 66° 143° (SE) 600 3.7 -5.9°
Drops below altitude 10° 17:24:04 10° 60° (ENE) 1,824 5.7 -6.6°
Enters shadow 17:24:54 - 59° (ENE) 2,154 6.1 -6.7°
